GW5614 Weather Reports


time (UTC)temp
C
wind
direction
speed
KPH
gust
KPH
rain 1hr
cm
rain 24hr
cm
rain mn
cm
humidity
%
barometer
mb
20260508000019 13 215 0.0 3.2 0.00 0.30 0.03 66 1007.7
20260507235545 13 215 0.0 3.2 0.00 0.30 0.03 67 1007.5
20260507235008 13 209 0.0 1.6 0.00 0.30 0.03 67 1007.5
20260507234534 13 207 0.0 1.6 0.00 0.30 0.03 68 1007.3
20260507234059 13 204 0.0 0.0 0.00 0.30 0.03 68 1007.2
20260507233525 13 204 0.0 0.0 0.00 0.30 0.03 70 1007.1
20260507233048 14 204 0.0 0.0 0.00 0.30 0.03 71 1007.1
20260507232521 14 204 0.0 0.0 0.00 0.30 0.03 71 1007.0
20260507232048 14 204 0.0 0.0 0.00 0.30 0.03 71 1006.9
20260507231511 14 204 0.0 0.0 0.00 0.30 0.03 72 1006.7
20260507231037 14 204 0.0 0.0 0.00 0.30 0.03 72 1006.7
20260507230602 14 204 0.0 1.6 0.00 0.30 0.03 73 1006.7
20260507230033 15 204 0.0 1.6 0.00 0.30 0.03 72 1006.6
20260507225558 15 204 0.0 1.6 0.00 0.30 0.03 72 1006.5
20260507225021 15 204 0.0 1.6 0.00 0.30 0.03 72 1006.4
20260507224547 15 204 0.0 1.6 0.00 0.30 0.03 73 1006.4
20260507224013 15 204 0.0 1.6 0.00 0.30 0.03 72 1006.3
20260507223535 15 204 0.0 1.6 0.00 0.30 0.03 72 1006.3
20260507223102 15 204 0.0 1.6 0.00 0.30 0.03 72 1006.3
20260507222523 15 204 0.0 1.6 0.00 0.30 0.03 73 1006.1
20260507222049 15 204 0.0 1.6 0.00 0.30 0.03 72 1006.1
20260507221518 15 204 0.0 3.2 0.00 0.30 0.03 72 1006.0
20260507221041 15 204 0.0 3.2 0.00 0.30 0.03 72 1006.0
20260507220507 15 203 0.0 4.8 0.00 0.30 0.03 72 1005.9
20260507220038 15 203 0.0 4.8 0.00 0.30 0.03 72 1005.8
20260507215503 15 181 0.0 3.2 0.00 0.30 0.03 72 1005.8
20260507215027 15 179 0.0 3.2 0.00 0.30 0.03 72 1005.8
20260507214616 15 179 0.0 4.8 0.00 0.30 0.03 72 1005.8
20260507214026 15 177 0.0 4.8 0.00 0.30 0.03 72 1005.9
20260507213552 15 189 0.0 3.2 0.00 0.30 0.03 72 1005.9
20260507213014 15 194 0.0 3.2 0.00 0.30 0.03 72 1005.9
20260507212538 15 194 0.0 3.2 0.00 0.30 0.03 72 1005.8
20260507212057 15 194 0.0 3.2 0.00 0.30 0.03 72 1005.8
20260507211517 15 194 0.0 3.2 0.00 0.30 0.03 72 1005.8
20260507211043 15 195 0.0 3.2 0.00 0.30 0.03 72 1005.6
20260507210553 15 194 0.0 3.2 0.00 0.30 0.03 72 1005.7
20260507210031 15 190 0.0 4.8 0.00 0.30 0.03 72 1005.7
20260507205537 15 188 0.0 4.8 0.00 0.30 0.03 72 1005.7
20260507205000 15 167 0.0 4.8 0.00 0.30 0.03 71 1005.8
20260507204533 15 183 0.0 3.2 0.00 0.30 0.03 71 1005.9
20260507204059 15 196 0.0 3.2 0.00 0.30 0.03 70 1005.8
20260507203524 15 179 0.0 3.2 0.00 0.30 0.03 72 1005.9
20260507203053 15 178 0.0 3.2 0.00 0.30 0.03 72 1005.8
20260507202508 15 168 0.0 4.8 0.00 0.30 0.03 71 1005.9
20260507202032 15 186 1.6 4.8 0.00 0.30 0.03 72 1006.0
20260507201558 15 198 0.0 1.6 0.00 0.30 0.03 72 1005.9
20260507201018 15 195 0.0 3.2 0.00 0.30 0.03 70 1006.1
20260507200541 15 188 0.0 3.2 0.00 0.30 0.03 71 1006.2
20260507200013 15 188 0.0 3.2 0.00 0.30 0.03 71 1006.2
20260507195538 15 188 0.0 3.2 0.00 0.30 0.03 71 1006.3
20260507195103 15 189 0.0 3.2 0.00 0.30 0.03 71 1006.2
20260507194531 15 188 0.0 3.2 0.00 0.30 0.03 72 1006.3
20260507194047 15 188 0.0 3.2 0.00 0.30 0.03 71 1006.3
20260507193508 15 188 0.0 3.2 0.00 0.30 0.03 72 1006.5
20260507193034 15 302 0.0 1.6 0.00 0.30 0.03 72 1006.7
20260507192557 15 302 0.0 3.2 0.00 0.30 0.03 72 1006.8
20260507192023 15 302 0.0 3.2 0.00 0.30 0.03 71 1006.8
20260507191551 15 303 0.0 1.6 0.00 0.30 0.03 71 1006.8
20260507191018 15 303 0.0 1.6 0.00 0.30 0.03 72 1006.8
20260507190543 15 302 0.0 1.6 0.00 0.30 0.03 72 1007.0
20260507190005 14 303 0.0 3.2 0.00 0.30 0.03 73 1007.1
20260507185538 14 303 0.0 3.2 0.00 0.30 0.03 72 1007.0
20260507185105 14 303 0.0 1.6 0.00 0.30 0.03 73 1007.1
20260507184527 13 303 0.0 1.6 0.00 0.30 0.03 72 1007.1
20260507184050 13 302 0.0 3.2 0.00 0.30 0.03 73 1007.2
20260507183511 13 302 1.6 4.8 0.00 0.30 0.03 73 1007.2
20260507183038 13 275 0.0 4.8 0.00 0.30 0.03 72 1007.1
20260507182502 12 210 0.0 3.2 0.00 0.30 0.03 72 1007.2
20260507182034 13 157 0.0 3.2 0.00 0.30 0.03 73 1007.3
20260507181559 12 157 0.0 3.2 0.00 0.30 0.03 73 1007.4
20260507181022 12 157 0.0 3.2 0.00 0.30 0.03 73 1007.5
20260507180553 12 156 0.0 3.2 0.00 0.30 0.03 73 1007.6
20260507180020 12 156 0.0 4.8 0.00 0.30 0.03 73 1007.6
20260507175542 13 135 0.0 4.8 0.00 0.30 0.03 73 1007.7
20260507175003 12 169 0.0 0.0 0.00 0.30 0.03 71 1007.7
20260507174544 12 169 0.0 3.2 0.00 0.30 0.03 72 1007.8
20260507174100 12 169 0.0 3.2 0.00 0.30 0.03 73 1007.7
20260507173527 12 163 0.0 1.6 0.00 0.30 0.03 73 1008.0
20260507173049 12 163 0.0 1.6 0.00 0.30 0.03 73 1008.2
20260507172513 12 163 0.0 1.6 0.00 0.30 0.03 73 1008.2
20260507172038 12 163 0.0 1.6 0.00 0.30 0.03 73 1008.2
20260507171501 12 160 0.0 1.6 0.00 0.30 0.03 73 1008.3
20260507171034 12 160 0.0 1.6 0.00 0.30 0.03 72 1008.4
20260507170601 12 158 0.0 3.2 0.00 0.30 0.03 72 1008.5
20260507170021 11 159 0.0 3.2 0.00 0.30 0.03 73 1008.5
20260507165546 11 158 0.0 0.0 0.00 0.30 0.03 72 1008.6
20260507165009 11 158 0.0 4.8 0.00 0.30 0.03 72 1008.7
20260507164535 11 158 0.0 4.8 0.00 0.30 0.03 71 1008.6
20260507164101 11 132 0.0 4.8 0.00 0.30 0.03 72 1008.6
20260507163522 11 111 0.0 1.6 0.00 0.30 0.03 71 1008.7
20260507163045 11 136 0.0 1.6 0.00 0.30 0.03 70 1008.9
20260507162504 11 136 0.0 1.6 0.00 0.30 0.03 71 1008.9
20260507162028 11 190 0.0 1.6 0.00 0.30 0.03 70 1009.0
20260507161553 11 183 0.0 0.0 0.00 0.30 0.03 68 1009.1
20260507161016 10 183 0.0 1.6 0.00 0.30 0.03 71 1009.1
20260507160542 10 183 0.0 1.6 0.00 0.30 0.03 71 1009.2
20260507160001 10 183 0.0 1.6 0.00 0.30 0.03 68 1009.4
20260507155526 10 183 0.0 3.2 0.00 0.30 0.03 68 1009.7
20260507155053 10 183 0.0 3.2 0.00 0.30 0.03 68 1009.6
20260507154530 10 183 0.0 3.2 0.00 0.30 0.03 69 1009.6
20260507154048 10 182 0.0 3.2 0.00 0.30 0.03 69 1009.5
20260507153512 10 177 0.0 1.6 0.00 0.30 0.03 69 1009.6
20260507153041 10 157 0.0 3.2 0.00 0.30 0.03 67 1009.7
20260507152559 10 157 0.0 3.2 0.00 0.30 0.03 66 1009.8
20260507152020 10 156 0.0 1.6 0.00 0.30 0.03 64 1009.5
20260507151542 10 163 0.0 1.6 0.00 0.30 0.03 65 1009.6
20260507151001 10 163 0.0 3.2 0.00 0.30 0.03 64 1009.6
20260507150524 10 182 0.0 3.2 0.00 0.30 0.03 58 1009.4
20260507150056 10 286 0.0 3.2 0.00 0.30 0.03 59 1009.6
20260507145602 10 258 0.0 0.0 0.00 0.30 0.03 57 1009.7
20260507145026 10 258 0.0 1.6 0.00 0.30 0.03 58 1009.8
20260507144546 10 258 0.0 1.6 0.00 0.30 0.03 56 1009.7
20260507144100 10 258 0.0 1.6 0.00 0.30 0.03 54 1009.9
20260507143523 10 258 0.0 1.6 0.00 0.30 0.03 51 1009.9
20260507143051 10 262 0.0 1.6 0.00 0.30 0.03 48 1010.0
20260507142519 10 263 0.0 0.0 0.00 0.30 0.03 49 1010.0
20260507142044 10 263 0.0 0.0 0.00 0.30 0.03 50 1010.1
20260507141510 10 263 0.0 1.6 0.00 0.30 0.03 51 1010.2
20260507141035 10 263 0.0 1.6 0.00 0.30 0.03 51 1010.2
20260507140601 10 262 0.0 3.2 0.00 0.30 0.03 51 1010.1
20260507140033 10 262 0.0 3.2 0.00 0.30 0.03 51 1010.3
20260507135559 10 199 0.0 1.6 0.00 0.30 0.03 50 1010.2
20260507135025 10 109 0.0 0.0 0.00 0.30 0.03 51 1010.2
20260507134549 10 108 0.0 0.0 0.00 0.30 0.03 50 1010.3
20260507134003 10 108 0.0 0.0 0.00 0.30 0.03 49 1010.2
20260507133526 10 108 0.0 0.0 0.00 0.30 0.03 50 1010.2
20260507133053 10 108 0.0 0.0 0.00 0.30 0.03 50 1010.2
20260507132515 10 108 0.0 1.6 0.00 0.30 0.03 52 1010.2
20260507132040 10 108 0.0 1.6 0.00 0.30 0.03 49 1010.2
20260507131501 10 108 0.0 0.0 0.00 0.30 0.03 49 1010.2
20260507131027 10 108 0.0 0.0 0.00 0.30 0.03 47 1010.2
20260507130553 10 108 0.0 0.0 0.00 0.36 0.03 48 1010.2
20260507130035 10 108 0.0 0.0 0.00 0.36 0.03 49 1010.3
20260507125546 10 108 0.0 0.0 0.00 0.36 0.03 51 1010.3
20260507125008 10 108 0.0 1.6 0.00 0.36 0.03 49 1010.2
20260507124543 10 108 0.0 1.6 0.00 0.36 0.03 49 1010.2
20260507124005 10 108 0.0 1.6 0.00 0.36 0.03 49 1010.3
20260507123528 10 108 0.0 1.6 0.00 0.36 0.03 48 1010.4
20260507123051 10 110 0.0 1.6 0.00 0.36 0.03 43 1010.3
20260507122513 10 111 0.0 0.0 0.00 0.36 0.03 42 1010.5
20260507122037 10 111 0.0 0.0 0.00 0.36 0.03 43 1010.4
20260507121601 10 111 0.0 0.0 0.00 0.36 0.03 42 1010.2
20260507121020 10 110 0.0 0.0 0.00 0.36 0.03 40 1010.0
20260507120544 10 110 0.0 0.0 0.00 0.36 0.03 39 1009.9
20260507120021 10 110 0.0 0.0 0.00 0.36 0.03 39 1009.9
20260507115537 10 111 0.0 0.0 0.00 0.36 0.03 40 1009.9
20260507115101 10 111 0.0 0.0 0.00 0.36 0.03 38 1009.8
20260507114522 10 111 0.0 0.0 0.00 0.36 0.03 37 1009.8
20260507114046 10 111 0.0 0.0 0.00 0.36 0.03 37 1009.7
20260507113507 10 111 0.0 0.0 0.00 0.36 0.03 37 1009.7
20260507113033 10 110 0.0 0.0 0.00 0.36 0.03 36 1009.7
20260507112556 10 111 0.0 0.0 0.00 0.36 0.03 35 1009.6
20260507112016 10 111 0.0 0.0 0.00 0.36 0.03 34 1009.7
20260507111540 10 111 0.0 0.0 0.00 0.36 0.03 33 1009.8
20260507111012 10 111 0.0 0.0 0.00 0.36 0.03 33 1009.7
20260507110528 10 111 0.0 0.0 0.00 0.36 0.03 33 1009.6
20260507110053 10 111 0.0 0.0 0.00 0.36 0.03 33 1009.6
20260507105515 10 111 0.0 0.0 0.00 0.36 0.03 34 1009.5
20260507105040 10 111 0.0 0.0 0.00 0.36 0.03 34 1009.3
20260507104511 10 111 0.0 0.0 0.00 0.36 0.03 33 1009.2
20260507104036 10 111 0.0 0.0 0.00 0.36 0.03 33 1009.1
20260507103500 10 110 0.0 0.0 0.00 0.36 0.03 32 1009.0
20260507103030 10 110 0.0 0.0 0.00 0.36 0.03 32 1009.1
20260507102541 10 111 0.0 0.0 0.00 0.36 0.03 31 1009.2
20260507102006 10 110 0.0 0.0 0.00 0.36 0.03 31 1009.4
20260507101530 10 110 0.0 0.0 0.00 0.36 0.03 31 1009.4
20260507101054 10 110 0.0 0.0 0.00 0.36 0.03 31 1009.3
20260507100530 10 110 0.0 0.0 0.00 0.36 0.03 31 1009.3
20260507100053 10 110 0.0 0.0 0.00 0.36 0.03 30 1009.3
20260507095517 10 110 0.0 0.0 0.00 0.36 0.03 30 1009.2
20260507095043 10 110 0.0 0.0 0.00 0.36 0.03 30 1009.1
20260507094512 10 110 0.0 0.0 0.00 0.36 0.03 30 1009.2
20260507094035 10 110 0.0 0.0 0.00 0.36 0.03 30 1009.2
20260507093509 10 110 0.0 0.0 0.00 0.36 0.03 29 1008.9
20260507093048 10 110 0.0 0.0 0.00 0.36 0.03 29 1008.8
20260507092507 10 110 0.0 0.0 0.00 0.36 0.03 30 1008.7
20260507092030 10 110 0.0 0.0 0.00 0.36 0.03 30 1008.9
20260507091503 10 110 0.0 0.0 0.00 0.36 0.03 30 1009.0
20260507091039 10 110 0.0 0.0 0.00 0.36 0.03 30 1008.9
20260507090501 10 110 0.0 0.0 0.00 0.36 0.03 31 1008.9
20260507090023 10 111 0.0 0.0 0.00 0.36 0.03 31 1009.0
20260507085548 10 111 0.0 0.0 0.00 0.36 0.03 31 1008.8
20260507085012 10 111 0.0 0.0 0.00 0.36 0.03 31 1008.8
20260507084536 10 111 0.0 1.6 0.00 0.36 0.03 31 1008.7
20260507084006 10 111 0.0 1.6 0.00 0.36 0.03 30 1008.7
20260507083540 10 41 0.0 1.6 0.00 0.36 0.03 30 1008.4
20260507083004 10 121 0.0 1.6 0.00 0.36 0.03 29 1008.4
20260507082528 10 121 0.0 1.6 0.00 0.36 0.03 29 1008.6
20260507082057 10 122 0.0 1.6 0.00 0.36 0.03 30 1008.6
20260507081515 11 129 0.0 1.6 0.00 0.36 0.03 29 1008.4
20260507081039 11 129 0.0 3.2 0.00 0.36 0.03 28 1008.7
20260507080511 11 130 0.0 3.2 0.00 0.36 0.03 28 1008.9
20260507080040 11 129 0.0 3.2 0.00 0.36 0.03 29 1008.9
20260507075601 11 129 0.0 3.2 0.03 0.36 0.03 28 1008.8
20260507075035 11 134 0.0 0.0 0.03 0.36 0.03 28 1008.8
20260507074600 11 119 0.0 3.2 0.03 0.36 0.03 28 1008.8
20260507074021 11 121 0.0 3.2 0.03 0.36 0.03 28 1008.6
20260507073549 11 5 0.0 3.2 0.03 0.36 0.03 28 1008.6
20260507073006 11 5 0.0 3.2 0.03 0.36 0.03 29 1008.4
20260507072530 11 106 0.0 6.4 0.03 0.36 0.03 29 1008.4
20260507072055 11 135 0.0 6.4 0.03 0.36 0.03 29 1008.2
20260507071556 11 30 0.0 3.2 0.03 0.36 0.03 29 1008.1
20260507071050 11 85 0.0 3.2 0.03 0.36 0.03 29 1007.9
20260507070514 11 9 0.0 3.2 0.03 0.36 0.03 28 1008.1
20260507070038 11 51 0.0 3.2 0.03 0.36 0.03 29 1008.3
20260507065600 11 317 0.0 4.8 0.00 0.33 0.00 29 1008.1
20260507065025 11 144 0.0 4.8 0.00 0.33 0.00 29 1007.8
20260507064544 11 221 0.0 4.8 0.00 0.33 0.00 29 1008.0
20260507064008 12 146 0.0 1.6 0.00 0.33 0.00 28 1007.9
20260507063528 12 242 0.0 1.6 0.00 0.33 0.00 28 1008.2
20260507063052 12 219 0.0 1.6 0.00 0.33 0.00 27 1008.1
20260507062516 12 210 0.0 0.0 0.00 0.33 0.00 27 1008.2
20260507062038 12 211 0.0 1.6 0.00 0.33 0.00 28 1008.1
20260507061601 12 136 0.0 1.6 0.00 0.33 0.00 28 1007.9
20260507061023 12 138 0.0 3.2 0.00 0.33 0.00 27 1008.0
20260507060547 12 138 0.0 3.2 0.00 0.33 0.00 27 1008.0
20260507060013 13 273 0.0 0.0 0.00 0.33 0.00 25 1008.2
20260507055533 13 273 0.0 0.0 0.00 0.33 0.00 23 1008.1
20260507055056 13 273 0.0 3.2 0.00 0.33 0.00 23 1008.2
20260507054516 13 273 0.0 3.2 0.00 0.33 0.00 23 1008.3
20260507054039 13 273 0.0 1.6 0.00 0.33 0.00 22 1008.3
20260507053509 13 277 0.0 0.0 0.00 0.33 0.00 22 1008.3
20260507053054 13 277 0.0 0.0 0.00 0.33 0.00 21 1008.2
20260507052553 14 277 0.0 1.6 0.00 0.33 0.00 20 1007.9
20260507052027 13 277 0.0 1.6 0.00 0.33 0.00 20 1007.5
20260507051600 13 274 0.0 1.6 0.00 0.33 0.00 21 1007.8
20260507051010 13 275 0.0 1.6 0.00 0.33 0.00 22 1007.6
20260507050543 13 273 0.0 0.0 0.00 0.33 0.00 22 1007.7
20260507050005 13 273 0.0 0.0 0.00 0.33 0.00 23 1007.6
20260507045529 13 273 0.0 0.0 0.03 0.33 0.00 24 1007.2
20260507045055 13 273 0.0 0.0 0.05 0.33 0.00 25 1007.0
20260507044519 14 273 0.0 1.6 0.18 0.33 0.00 25 1007.2
20260507044040 14 271 0.0 1.6 0.23 0.33 0.00 26 1006.9
20260507043512 14 265 0.0 0.0 0.23 0.33 0.00 26 1006.9
20260507043037 14 265 0.0 0.0 0.23 0.33 0.00 26 1006.9
20260507042557 15 265 0.0 1.6 0.23 0.33 0.00 26 1007.2
20260507042025 15 265 0.0 1.6 0.23 0.33 0.00 25 1007.4
20260507041548 15 263 0.0 1.6 0.23 0.33 0.00 24 1007.4
20260507041018 15 264 0.0 1.6 0.23 0.33 0.00 25 1007.6
20260507040542 15 264 0.0 1.6 0.23 0.33 0.33 25 1007.8
20260507040005 15 264 0.0 0.0 0.23 0.33 0.33 25 1007.9
20260507035529 15 264 0.0 0.0 0.20 0.30 0.30 25 1007.7
20260507035056 15 264 0.0 0.0 0.18 0.28 0.28 24 1007.9
20260507034529 16 264 0.0 0.0 0.05 0.15 0.15 24 1008.3
20260507034039 16 264 0.0 0.0 0.00 0.10 0.10 25 1007.8
20260507033509 16 264 0.0 1.6 0.00 0.10 0.10 25 1007.7
20260507033043 16 263 0.0 0.0 0.00 0.10 0.10 25 1007.8
20260507032601 16 263 0.0 0.0 0.00 0.10 0.10 25 1007.7
20260507032031 16 263 0.0 0.0 0.03 0.10 0.10 25 1007.7
20260507031558 16 263 0.0 0.0 0.03 0.10 0.10 27 1007.8
20260507031020 16 263 0.0 0.0 0.03 0.10 0.10 28 1007.5
20260507030543 16 263 0.0 0.0 0.03 0.10 0.10 30 1007.4
20260507030020 16 263 0.0 0.0 0.05 0.10 0.10 32 1007.5
20260507025540 16 263 0.0 0.0 0.05 0.10 0.10 34 1007.2
20260507025006 16 263 0.0 0.0 0.05 0.10 0.10 37 1007.3
20260507024533 16 263 0.0 0.0 0.05 0.10 0.10 40 1007.3
20260507024051 16 263 0.0 0.0 0.05 0.10 0.10 43 1007.3
20260507023516 16 263 0.0 0.0 0.05 0.10 0.10 45 1007.3
20260507023041 16 263 0.0 0.0 0.05 0.10 0.10 44 1007.3
20260507022504 17 263 0.0 1.6 0.05 0.10 0.10 45 1007.0
20260507022039 17 263 0.0 1.6 0.03 0.08 0.08 51 1006.9
20260507021501 17 263 0.0 0.0 0.03 0.08 0.08 57 1006.9
20260507021031 17 263 0.0 0.0 0.03 0.08 0.08 59 1006.7
20260507020557 17 263 0.0 0.0 0.03 0.08 0.08 65 1006.8
20260507020021 17 263 0.0 0.0 0.00 0.05 0.05 66 1006.5
20260507015541 17 263 0.0 1.6 0.00 0.05 0.05 67 1006.5
20260507015005 17 263 0.0 1.6 0.00 0.05 0.05 68 1006.5
20260507014548 18 263 0.0 1.6 0.00 0.05 0.05 67 1006.5
20260507014101 18 263 0.0 1.6 0.00 0.05 0.05 68 1006.5
20260507013526 18 260 0.0 1.6 0.00 0.05 0.05 67 1006.4
20260507013050 18 242 0.0 0.0 0.00 0.05 0.05 68 1006.3
20260507012511 18 242 0.0 0.0 0.00 0.05 0.05 68 1006.2
20260507012036 18 242 0.0 0.0 0.00 0.05 0.05 68 1006.2
20260507011507 18 242 0.0 0.0 0.00 0.05 0.05 68 1006.3
20260507011034 18 242 0.0 0.0 0.00 0.05 0.05 69 1006.4
20260507010600 19 242 0.0 0.0 0.00 0.05 0.05 69 1006.5
20260507010026 19 242 0.0 0.0 0.00 0.05 0.05 70 1006.5
20260507005549 19 242 0.0 0.0 0.00 0.05 0.05 70 1006.6
20260507005021 19 242 0.0 0.0 0.00 0.05 0.05 70 1006.6
20260507004549 19 242 0.0 0.0 0.00 0.05 0.05 71 1006.8
20260507004011 19 242 0.0 0.0 0.00 0.05 0.05 70 1006.6
20260507003538 19 242 0.0 0.0 0.00 0.05 0.05 70 1006.7
20260507003008 19 242 0.0 1.6 0.00 0.05 0.05 70 1006.5
20260507002533 19 242 0.0 1.6 0.00 0.05 0.05 70 1006.5
20260507002100 19 230 0.0 0.0 0.00 0.05 0.05 70 1006.5
20260507001521 20 230 0.0 0.0 0.00 0.05 0.05 70 1006.4
20260507001046 20 230 0.0 1.6 0.00 0.05 0.05 71 1006.3
20260507000509 20 230 0.0 3.2 0.00 0.05 0.05 71 1006.1